| time (UTC) | temp F | wind direction | speed knots | gust knots | rain 1hr in | rain 24hr in | rain mn in | humidity % | barometer mb |
| 20260506124525 | 49 | 67 | 0.0 | 1.7 | 0.00 | 0.00 | 0.00 | 89 | 1018.6 |
| 20260506123030 | 49 | 67 | 0.0 | 1.7 | 0.00 | 0.00 | 0.00 | 89 | 1018.5 |
| 20260506121527 | 50 | 67 | 0.0 | 1.7 | 0.00 | 0.00 | 0.00 | 89 | 1018.6 |
| 20260506120005 | 49 | 67 | 0.9 | 1.7 | 0.00 | 0.00 | 0.00 | 90 | 1018.6 |
| 20260506114508 | 49 | 67 | 0.0 | 1.7 | 0.00 | 0.00 | 0.00 | 89 | 1018.7 |
| 20260506113018 | 49 | 67 | 0.0 | 1.7 | 0.00 | 0.00 | 0.00 | 89 | 1018.8 |
| 20260506111508 | 50 | 67 | 0.0 | 0.9 | 0.00 | 0.00 | 0.00 | 89 | 1018.8 |
| 20260506110013 | 50 | 67 | 0.0 | 1.7 | 0.00 | 0.00 | 0.00 | 89 | 1018.7 |
| 20260506104511 | 50 | 67 | 0.0 | 0.0 | 0.00 | 0.00 | 0.00 | 89 | 1018.8 |
| 20260506103014 | 50 | 67 | 0.0 | 0.0 | 0.00 | 0.00 | 0.00 | 89 | 1018.7 |
| 20260506101516 | 51 | 67 | 0.0 | 0.9 | 0.00 | 0.00 | 0.00 | 88 | 1018.7 |
| 20260506100014 | 51 | 67 | 0.0 | 1.7 | 0.00 | 0.00 | 0.00 | 88 | 1018.5 |
| 20260506094519 | 52 | 67 | 0.0 | 1.7 | 0.00 | 0.00 | 0.00 | 88 | 1018.5 |
| 20260506093020 | 52 | 67 | 0.0 | 0.0 | 0.00 | 0.00 | 0.00 | 88 | 1018.6 |
| 20260506091518 | 52 | 67 | 0.0 | 1.7 | 0.00 | 0.00 | 0.00 | 88 | 1018.6 |
| 20260506090031 | 52 | 72 | 0.0 | 1.7 | 0.00 | 0.00 | 0.00 | 88 | 1018.8 |
| 20260506084523 | 52 | 44 | 0.0 | 1.7 | 0.00 | 0.00 | 0.00 | 88 | 1018.9 |
| 20260506083020 | 53 | 44 | 0.0 | 1.7 | 0.00 | 0.00 | 0.00 | 88 | 1018.9 |
| 20260506081522 | 54 | 44 | 0.0 | 1.7 | 0.00 | 0.00 | 0.00 | 87 | 1019.1 |
| 20260506073025 | 54 | 350 | 0.0 | 1.7 | 0.00 | 0.00 | 0.00 | 86 | 1018.9 |
| 20260506071526 | 54 | 51 | 0.0 | 1.7 | 0.00 | 0.00 | 0.00 | 85 | 1018.8 |
| 20260506061543 | 55 | 5 | 0.0 | 1.7 | 0.00 | 0.00 | 0.00 | 83 | 1018.4 |
| 20260506044530 | 56 | 333 | 0.9 | 3.5 | 0.00 | 0.00 | 0.00 | 80 | 1017.8 |
| 20260506043035 | 56 | 313 | 0.9 | 2.6 | 0.00 | 0.00 | 0.00 | 79 | 1017.7 |
| 20260506041525 | 57 | 360 | 0.9 | 1.7 | 0.00 | 0.00 | 0.00 | 78 | 1017.6 |
| 20260506040019 | 57 | 351 | 0.9 | 3.5 | 0.00 | 0.00 | 0.00 | 77 | 1017.3 |
| 20260506034527 | 57 | 325 | 1.7 | 3.5 | 0.00 | 0.00 | 0.00 | 76 | 1017.2 |
| 20260506033025 | 58 | 9 | 0.9 | 5.2 | 0.00 | 0.00 | 0.00 | 75 | 1016.9 |
| 20260506031524 | 58 | 306 | 1.7 | 7.0 | 0.00 | 0.00 | 0.00 | 74 | 1016.5 |
| 20260506030029 | 58 | 352 | 3.5 | 7.0 | 0.00 | 0.00 | 0.00 | 73 | 1016.1 |
| 20260506024538 | 59 | 35 | 6.1 | 7.8 | 0.00 | 0.00 | 0.00 | 72 | 1015.9 |
| 20260506023026 | 60 | 16 | 2.6 | 7.8 | 0.00 | 0.00 | 0.00 | 69 | 1015.8 |
| 20260506021526 | 61 | 346 | 2.6 | 7.0 | 0.00 | 0.00 | 0.00 | 66 | 1015.7 |
| 20260506020006 | 61 | 324 | 3.5 | 8.7 | 0.00 | 0.00 | 0.00 | 64 | 1015.5 |
| 20260506014508 | 61 | 325 | 2.6 | 7.8 | 0.00 | 0.00 | 0.00 | 70 | 1015.5 |
| 20260506013012 | 62 | 276 | 3.5 | 8.7 | 0.00 | 0.00 | 0.00 | 69 | 1015.4 |
| 20260506011510 | 62 | 310 | 4.3 | 11.3 | 0.00 | 0.00 | 0.00 | 69 | 1015.4 |
| 20260506010012 | 61 | 265 | 5.2 | 11.3 | 0.00 | 0.00 | 0.00 | 71 | 1015.4 |
| 20260506004514 | 61 | 292 | 7.0 | 12.2 | 0.00 | 0.00 | 0.00 | 73 | 1015.4 |
| 20260506003016 | 62 | 252 | 4.3 | 12.2 | 0.00 | 0.00 | 0.00 | 72 | 1015.3 |
| 20260506001515 | 62 | 277 | 6.1 | 13.0 | 0.00 | 0.00 | 0.00 | 72 | 1015.2 |
| 20260506000019 | 62 | 227 | 6.1 | 12.2 | 0.00 | 0.00 | 0.00 | 73 | 1015.1 |
| 20260505234520 | 62 | 281 | 6.1 | 13.0 | 0.00 | 0.00 | 0.00 | 72 | 1015.2 |
| 20260505233022 | 63 | 306 | 6.1 | 13.9 | 0.00 | 0.00 | 0.00 | 71 | 1015.2 |
| 20260505231523 | 62 | 252 | 7.8 | 15.6 | 0.00 | 0.00 | 0.00 | 72 | 1015.1 |
| 20260505230020 | 62 | 287 | 8.7 | 13.0 | 0.00 | 0.00 | 0.00 | 71 | 1015.3 |
| 20260505224527 | 62 | 277 | 7.8 | 14.8 | 0.00 | 0.00 | 0.00 | 70 | 1015.3 |
| 20260505223027 | 62 | 302 | 5.2 | 13.9 | 0.00 | 0.00 | 0.00 | 71 | 1015.5 |
| 20260505221524 | 63 | 269 | 6.1 | 13.0 | 0.00 | 0.00 | 0.00 | 70 | 1015.7 |
| 20260505220025 | 61 | 280 | 7.0 | 13.0 | 0.00 | 0.00 | 0.00 | 72 | 1015.9 |
| 20260505214532 | 62 | 298 | 5.2 | 12.2 | 0.00 | 0.00 | 0.00 | 71 | 1016.1 |
| 20260505213024 | 61 | 286 | 4.3 | 13.9 | 0.00 | 0.00 | 0.00 | 72 | 1016.4 |
| 20260505211525 | 62 | 271 | 6.1 | 13.9 | 0.00 | 0.00 | 0.00 | 70 | 1016.4 |
| 20260505210028 | 61 | 271 | 7.8 | 13.9 | 0.00 | 0.00 | 0.00 | 70 | 1016.4 |
| 20260505204526 | 61 | 276 | 7.0 | 13.9 | 0.00 | 0.00 | 0.00 | 68 | 1016.5 |
| 20260505203008 | 62 | 273 | 6.1 | 13.0 | 0.00 | 0.00 | 0.00 | 67 | 1016.4 |
| 20260505201513 | 61 | 284 | 7.0 | 14.8 | 0.00 | 0.00 | 0.00 | 69 | 1016.5 |
| 20260505200013 | 62 | 259 | 7.0 | 14.8 | 0.00 | 0.00 | 0.00 | 67 | 1016.5 |
| 20260505194516 | 62 | 256 | 8.7 | 15.6 | 0.00 | 0.00 | 0.00 | 64 | 1016.4 |
| 20260505193012 | 63 | 259 | 6.1 | 14.8 | 0.00 | 0.00 | 0.00 | 68 | 1016.5 |
| 20260505191519 | 63 | 323 | 4.3 | 9.6 | 0.00 | 0.00 | 0.00 | 68 | 1016.5 |
| 20260505190024 | 63 | 242 | 3.5 | 11.3 | 0.00 | 0.00 | 0.00 | 69 | 1016.7 |
| 20260505184520 | 62 | 255 | 5.2 | 9.6 | 0.00 | 0.00 | 0.00 | 69 | 1016.6 |
| 20260505183027 | 63 | 212 | 2.6 | 10.4 | 0.00 | 0.00 | 0.00 | 71 | 1016.6 |
| 20260505181520 | 63 | 175 | 2.6 | 9.6 | 0.00 | 0.00 | 0.00 | 69 | 1016.5 |
| 20260505180023 | 62 | 312 | 4.3 | 8.7 | 0.00 | 0.00 | 0.00 | 69 | 1016.5 |
| 20260505174524 | 61 | 257 | 3.5 | 8.7 | 0.00 | 0.00 | 0.00 | 70 | 1016.5 |
| 20260505173024 | 62 | 293 | 1.7 | 7.0 | 0.00 | 0.00 | 0.00 | 71 | 1016.3 |
| 20260505171524 | 61 | 254 | 3.5 | 7.8 | 0.00 | 0.00 | 0.00 | 71 | 1016.2 |
| 20260505170028 | 61 | 320 | 2.6 | 7.0 | 0.00 | 0.00 | 0.00 | 70 | 1016.3 |
| 20260505164526 | 60 | 265 | 2.6 | 6.1 | 0.00 | 0.00 | 0.00 | 71 | 1016.3 |
| 20260505163026 | 60 | 232 | 2.6 | 6.1 | 0.00 | 0.00 | 0.00 | 68 | 1016.3 |
| 20260505161526 | 61 | 226 | 1.7 | 5.2 | 0.00 | 0.00 | 0.00 | 68 | 1016.1 |
| 20260505153010 | 58 | 331 | 1.7 | 6.1 | 0.00 | 0.00 | 0.00 | 75 | 1015.9 |
| 20260505151511 | 58 | 5 | 1.7 | 4.3 | 0.00 | 0.00 | 0.00 | 78 | 1015.8 |